Location: Unspecified
(43.8044°N, 11.0278°E)
Time: 17:21:07
(UTC+01:00)

Cosmos 2058 - Visible Passes

Search period start: 23 March 2017 00:00
Search period end: 02 April 2017 01:00
Orbit: 565 x 585 km, 82.5° (Epoch: 21 March)

Date Brightness Start Highest point End Pass type
(mag) Time Alt. Az. Time Alt. Az. Time Alt. Az.
23 Mar 5.1 21:16:20 10° N 21:17:34 19° N 21:17:34 19° N visible
24 Mar 4.9 21:19:42 10° N 21:21:19 23° N 21:21:19 23° N visible
25 Mar 4.7 21:23:07 10° N 21:25:06 27° N 21:25:06 27° N visible
26 Mar 5.1 20:51:47 10° NE 20:52:38 11° ENE 20:52:38 11° ENE visible
26 Mar 4.6 22:26:35 10° NNW 22:28:53 31° NNW 22:28:53 31° NNW visible
27 Mar 4.8 20:54:24 10° NNE 20:56:28 15° ENE 20:56:28 15° ENE visible
27 Mar 4.5 22:30:06 10° NNW 22:32:43 33° NW 22:32:43 33° NW visible
28 Mar 4.4 20:57:21 10° NNE 21:00:19 19° ENE 21:00:19 19° ENE visible
28 Mar 4.6 22:33:41 10° NNW 22:36:35 31° WNW 22:36:35 31° WNW visible
29 Mar 4.0 21:00:27 10° NNE 21:03:55 25° ENE 21:04:13 25° E visible
29 Mar 4.9 22:37:19 10° NNW 22:40:29 26° W 22:40:29 26° W visible
30 Mar 3.6 21:03:39 10° N 21:07:25 32° ENE 21:08:10 30° E visible
30 Mar 5.2 22:41:05 10° NW 22:44:08 20° W 22:44:26 20° W visible
31 Mar 3.3 21:06:55 10° N 21:10:54 43° ENE 21:12:09 33° ESE visible
31 Mar 5.5 22:45:01 10° NW 22:47:26 15° W 22:48:25 14° WSW visible
01 Apr 2.9 21:10:15 10° N 21:14:21 58° E 21:16:11 30° SSE visible
01 Apr 5.8 22:49:19 10° WNW 22:50:43 12° W 22:52:08 10° WSW visible
